Temperature
18 18 18 18 18 18 18 18 18 18 18 18 18 18 18 18 18 18 18 18 18 18 18 18 18 18 18 18 17 17 17 17 17 17 17 17 17 17 17 16 16 16 16
18 18 18 18 18 18 18 18 18 18 18 18 18 18 18 18 18 18 18 18 18 18 18 18 18 18 18 18 18 17 17 17 17 17 17 17 17 17 17 17 16 16 16
18 18 18 18 18 18 18 18 18 18 18 18 18 18 18 18 18 18 18 18 18 18 18 18 18 18 18 18 18 18 17 17 17 17 17 17 17 17 17 17 16 16 16
18 18 18 18 18 18 18 18 18 18 18 18 18 18 18 18 18 18 18 18 18 18 18 18 18 18 18 18 18 18 17 17 17 17 17 17 17 17 16 16 16 16 16
18 18 18 18 18 18 18 18 18 18 18 18 18 18 18 18 18 18 18 18 18 18 18 17 18 18 17 17 17 17 17 17 17 17 17 17 17 16 16 16 16 16 16
18 18 18 18 18 18 18 18 18 18 18 18 18 18 18 18 18 18 18 18 18 18 17 17 17 17 17 17 17 17 17 17 17 17 17 17 16 16 16 16 16 16 16
18 18 18 18 18 18 18 18 18 18 18 18 18 18 18 18 18 18 18 18 18 17 17 17 17 17 17 17 17 17 17 17 17 17 17 16 16 16 16 16 16 16 16
18 18 18 18 18 18 18 18 17 18 18 18 18 17 17 17 17 17 17 17 17 17 17 17 17 17 17 17 17 17 17 17 17 17 17 16 16 16 16 16 16 16 16
18 18 18 18 18 18 18 17 17 17 18 17 17 17 17 17 17 17 17 17 17 17 17 17 17 17 17 17 17 17 17 17 17 17 16 16 16 16 16 16 16 16 16
18 18 18 18 18 18 17 17 17 17 17 17 17 17 17 17 17 17 17 17 17 17 17 17 17 17 17 17 17 16 16 16 16 16 16 16 16 16 16 16 16 16 16
18 18 17 17 18 17 17 17 17 17 17 17 17 17 17 17 17 17 17 17 17 17 17 17 17 17 17 17 16 16 16 16 16 16 16 16 16 16 16 16 16 16 16
17 17 17 17 17 17 17 17 17 17 17 17 17 17 17 17 17 17 17 17 17 17 17 17 17 17 16 16 16 16 16 16 16 16 16 16 16 16 16 16 16 16 15
17 17 17 17 17 17 17 17 17 17 17 17 17 17 17 17 17 17 17 17 16 16 16 16 16 16 16 16 16 16 16 16 16 16 16 16 16 16 16 16 16 16 15
17 17 17 17 17 17 17 17 17 17 17 17 17 17 17 17 17 17 17 16 16 16 16 16 16 16 16 16 16 16 16 16 16 16 16 16 16 16 15 15 15 16 16
17 17 17 17 17 17 17 17 17 17 17 17 17 17 17 17 17 17 16 16 16 16 16 16 16 16 16 16 16 16 16 15 15 15 15 15 15 15 15 15 15 15 15
17 17 17 17 17 17 17 17 16 16 16 16 16 17 16 16 16 16 16 16 16 16 15 16 16 16 15 15 15 15 15 15 15 15 15 15 15 15 15 15 15 15 15
17 17 17 17 17 16 16 16 16 16 16 16 16 16 16 16 16 16 16 16 16 16 16 15 15 15 15 15 15 15 15 15 15 15 15 15 15 15 15 15 15 15 15
17 17 17 16 16 16 16 16 16 16 16 16 16 16 16 16 16 16 16 15 15 15 15 15 15 15 15 15 15 15 15 15 15 14 15 15 15 14 15 15 15 15 15
16 16 16 16 16 16 16 16 16 16 16 15 16 16 16 15 15 15 15 15 15 15 15 15 15 15 14 14 14 14 14 14 14 14 14 14 14 14 14 14 14 14 14
16 16 16 16 16 16 16 16 15 15 15 15 15 15 15 15 15 15 15 15 15 14 14 14 14 14 14 14 14 14 14 14 14 14 14 14 14 14 14 14 14 14 14
16 16 16 16 16 16 15 15 15 15 15 15 15 15 15 15 15 14 14 14 14 14 14 14 14 14 14 14 14 14 14 14 14 14 14 14 14 14 14 14 14 14 14
16 16 16 16 15 15 15 15 15 15 15 15 15 14 14 14 14 14 14 14 14 14 14 13 13 13 13 14 14 13 13 13 13 13 13 14 14 14 14 14 14 14 14
16 15 15 15 15 15 15 15 15 15 15 15 14 14 14 14 14 14 14 14 13 13 13 13 13 13 13 13 13 13 13 13 13 14 13 13 13 13 13 13 13 14 14
16 15 15 15 15 15 15 15 15 14 14 14 14 14 14 14 14 14 14 13 13 13 13 13 13 13 13 13 13 13 13 13 13 13 13 13 13 13 13 13 13 13 13
15 15 15 15 15 15 15 14 14 14 14 14 14 14 13 13 13 13 13 13 13 13 13 13 13 13 13 13 13 13 13 13 13 13 13 13 13 13 13 13 13 13 13
15 15 15 15 15 14 14 14 14 14 14 14 14 13 13 13 13 13 13 13 13 13 13 13 13 13 13 13 13 13 13 13 13 12 13 13 13 13 13 13 13 13 13
Wind_Speed
2 2 2 2 2 2 2 1 1 1 1 1 2 3 3 4 6 6 6 10 10 10 10 10 10 10 11 11 12 12 12 12 12 12 12 12 11 11 11 11 11 11 11
3 2 1 1 1 2 1 1 1 1 1 1 1 1 3 4 5 6 6 8 9 10 10 10 10 9 9 10 11 11 12 12 12 12 12 12 12 11 11 11 11 11 11
4 3 2 1 1 1 1 0 1 0 0 0 1 1 2 3 4 5 6 6 7 8 9 9 9 9 9 10 10 11 11 11 12 12 12 12 12 12 11 11 11 12 11
5 4 2 1 1 1 1 1 1 1 1 0 0 1 1 2 3 4 5 5 5 5 6 8 9 9 10 10 9 9 10 11 11 12 12 12 12 12 12 11 11 11 11
4 3 2 1 1 1 1 1 1 1 0 0 1 1 0 1 2 3 4 5 5 5 5 6 8 9 9 10 10 10 10 10 11 11 11 11 11 11 11 11 11 11 11
4 3 2 1 1 1 1 1 1 1 1 0 1 1 1 0 1 2 3 3 5 6 5 5 5 6 8 9 9 9 10 10 11 11 11 11 11 10 10 11 11 12 12
4 3 2 1 1 2 1 1 1 1 1 1 2 2 3 2 1 0 1 2 2 4 4 4 5 5 5 7 7 8 9 10 11 11 11 11 11 11 10 10 11 11 11
3 3 3 2 1 1 1 1 1 1 1 1 2 2 2 3 3 1 1 1 2 2 3 4 4 4 5 5 6 7 8 9 10 10 10 10 11 12 12 11 11 11 11
3 3 3 2 2 2 2 1 2 2 1 0 1 3 2 2 2 2 1 1 1 1 1 2 3 4 5 5 6 7 8 9 9 9 9 9 9 11 12 12 12 12 12
2 3 3 3 3 2 2 1 2 1 2 0 1 0 2 3 2 1 2 2 0 1 1 1 2 3 4 4 5 6 8 8 8 8 8 8 8 8 9 11 11 12 12
1 2 3 2 2 2 2 2 1 1 2 2 1 1 0 0 2 2 1 2 2 1 1 2 2 2 3 4 6 7 8 9 8 8 8 7 7 8 8 8 9 10 11
1 1 2 2 2 2 2 2 2 2 2 2 1 1 1 1 2 2 2 2 1 2 1 1 2 3 3 4 5 7 9 9 8 8 8 7 7 7 7 8 8 8 9
1 2 2 2 2 2 2 2 2 2 2 2 2 2 2 2 2 3 3 2 1 2 1 1 2 2 3 3 5 7 8 9 9 8 8 8 8 8 8 7 7 7 8
3 3 3 3 3 2 3 2 2 3 2 2 2 2 1 1 1 2 3 3 1 1 1 2 2 2 3 4 6 7 7 9 9 8 8 8 9 8 8 8 7 7 8
3 3 3 3 2 2 2 3 2 3 2 2 2 2 2 1 1 1 2 3 4 2 2 2 2 2 3 4 6 6 6 8 9 9 8 8 8 9 9 8 8 8 8
2 2 2 3 3 3 3 2 2 2 2 3 2 2 2 2 1 1 1 1 2 4 3 3 3 3 2 3 5 6 6 7 9 9 9 9 8 8 9 9 9 9 9
4 4 3 3 3 3 3 2 3 2 2 2 2 2 2 2 1 1 1 1 1 2 3 2 2 2 2 2 2 3 4 4 6 9 9 9 9 10 10 10 10 10 10
4 4 3 3 3 3 2 3 3 2 2 3 3 2 2 2 1 2 1 2 2 2 3 3 2 1 2 3 2 2 2 3 4 6 9 10 10 10 11 11 10 10 10
3 3 3 3 3 3 3 3 3 2 2 3 3 3 3 2 3 2 2 2 2 2 2 3 2 2 2 2 1 1 1 1 3 5 7 9 10 10 11 11 11 11 11
2 2 3 3 4 3 3 3 3 3 3 3 3 3 3 4 4 4 3 3 2 2 2 2 2 2 2 1 1 1 1 1 2 3 4 6 8 9 11 11 11 11 12
2 2 2 2 3 3 4 4 3 3 3 3 3 3 4 4 5 4 3 3 3 2 2 2 2 2 2 1 2 2 3 2 2 2 2 3 3 4 6 9 10 11 12
3 2 2 2 2 3 4 4 3 3 3 3 3 3 3 3 3 3 3 4 5 4 4 3 3 4 4 3 3 3 3 2 3 3 3 4 3 4 5 7 10 12 13
2 2 2 2 3 4 5 5 4 3 3 3 3 3 3 2 2 1 2 2 4 6 6 5 5 5 5 5 4 4 4 4 5 3 2 3 3 4 5 7 11 12 13
3 3 3 3 3 4 5 5 5 3 3 4 3 3 3 3 2 2 2 2 3 3 4 4 6 7 6 6 6 6 5 4 3 2 3 3 3 4 4 5 9 11 12
3 4 4 4 4 5 6 6 5 3 3 4 3 3 3 3 4 3 2 2 3 4 4 5 6 7 8 8 6 3 3 2 3 4 2 3 3 2 3 4 6 9 10
4 4 4 4 5 5 6 7 6 3 3 3 3 3 4 4 5 4 3 3 4 5 3 3 3 3 4 5 7 6 6 5 3 3 4 4 3 1 2 3 3 4 6
Wind_Direction
165 180 198 205 220 218 218 216 236 229 197 190 171 159 177 179 178 185 190 194 194 195 197 199 199 198 198 199 198 197 195 194 192 191 189 188 189 189 193 198 199 200 199
159 157 166 184 212 223 222 205 190 198 205 174 173 170 186 184 176 178 186 195 196 198 200 199 199 199 199 199 201 201 199 198 198 196 194 194 194 194 196 199 199 200 199
157 151 132 148 220 211 175 111 65 34 79 171 190 193 172 176 169 177 185 187 192 199 201 197 194 195 196 199 200 200 198 198 199 196 194 197 199 199 201 203 204 204 201
156 148 140 182 206 138 106 93 73 57 359 39 162 203 169 166 170 177 179 182 185 193 194 194 195 195 196 198 197 196 196 198 200 200 200 202 203 204 205 204 203 202 201
159 146 148 186 164 102 71 105 64 98 64 65 175 142 147 162 173 179 176 180 184 184 184 189 192 195 198 202 203 201 202 203 203 204 203 203 204 205 205 205 204 203 201
155 143 151 163 126 93 53 56 64 53 80 148 109 52 19 17 135 161 174 175 182 182 182 183 186 198 203 207 210 209 209 209 207 206 206 205 202 202 203 204 206 206 205
151 141 131 124 118 125 145 131 98 62 29 54 62 26 7 12 51 104 139 149 164 172 174 176 178 185 199 207 209 206 207 209 208 206 206 205 205 205 204 204 205 207 206
150 146 137 142 132 121 95 84 97 86 15 78 103 78 19 357 352 4 33 163 161 158 170 179 178 182 188 188 198 197 200 202 204 203 204 206 209 210 210 210 210 211 210
155 140 145 146 140 139 166 171 135 130 145 326 121 133 137 220 302 337 337 57 120 138 169 166 172 177 186 190 194 200 199 198 199 201 205 208 212 215 215 214 214 214 214
160 155 148 144 143 153 163 184 146 140 133 149 312 207 173 163 159 298 324 332 18 147 179 183 180 179 182 192 192 195 194 195 201 206 207 207 209 211 212 216 217 218 214
182 173 169 156 158 169 171 171 154 148 154 170 201 234 350 92 146 162 259 309 332 292 229 204 183 172 192 198 194 194 190 188 193 199 202 205 208 207 207 208 211 214 216
252 205 176 168 178 184 186 193 190 183 187 185 193 170 165 179 194 166 197 245 272 288 268 219 199 197 196 197 199 193 189 188 192 198 199 195 196 200 204 205 205 205 207
236 247 204 188 198 206 198 193 197 209 205 195 209 218 206 209 187 171 164 204 248 289 308 287 228 204 201 194 202 197 192 191 194 196 195 193 195 199 204 204 206 207 209
211 222 202 194 199 203 208 189 199 220 210 209 220 216 209 222 186 171 172 169 183 304 302 266 270 235 211 197 205 195 195 195 196 197 197 198 201 204 206 207 210 213 216
208 210 198 201 206 203 211 197 210 230 213 215 216 210 208 217 209 198 174 171 170 210 264 253 252 253 222 208 210 194 192 197 196 199 201 204 205 207 209 210 210 212 215
210 202 207 210 215 215 216 210 225 234 207 224 216 205 217 224 208 210 189 182 174 181 223 237 234 242 229 217 210 198 201 203 206 207 208 208 211 214 214 216 216 213 213
204 206 208 207 210 213 213 210 219 213 210 235 237 211 228 221 211 229 205 185 188 169 208 258 244 244 221 215 189 192 202 206 219 219 218 220 221 222 220 218 217 216 215
210 212 210 205 212 215 213 209 216 217 213 228 236 223 240 231 221 236 216 215 215 199 188 231 262 241 230 215 196 195 201 208 217 226 224 224 226 227 224 221 219 218 219
214 214 201 205 215 218 221 218 210 223 234 235 229 221 229 211 235 244 227 219 222 222 185 190 235 241 235 217 188 226 229 213 223 229 223 223 227 227 226 225 223 222 222
201 217 220 217 214 214 217 222 222 233 243 244 239 227 224 217 225 229 230 223 217 214 203 190 217 233 242 237 164 197 237 237 240 243 236 232 230 229 230 228 226 225 225
211 215 217 230 228 219 220 218 223 227 235 251 260 251 241 230 223 222 225 218 206 210 208 210 225 232 241 218 216 211 212 236 255 245 242 238 224 228 235 236 235 234 229
217 204 206 217 240 239 224 219 218 230 228 231 248 263 264 253 240 240 239 226 204 206 216 217 225 225 232 223 219 215 207 215 263 246 211 243 214 229 236 235 234 232 230
217 217 221 211 229 240 231 225 218 214 225 232 234 242 253 253 236 244 259 263 245 235 218 210 221 231 226 220 209 218 216 214 234 235 197 252 242 243 249 246 238 235 231
217 225 233 232 236 248 239 228 224 221 235 243 236 224 219 236 236 212 230 275 274 260 240 226 223 232 230 222 213 214 219 226 255 249 185 227 249 246 254 251 243 236 233
223 229 233 230 234 251 244 237 227 222 237 248 246 234 214 215 230 211 206 246 275 280 274 253 236 235 237 234 218 195 200 201 251 259 209 198 240 249 258 254 251 237 229
223 231 241 237 232 243 246 238 221 207 225 243 259 253 222 216 229 221 212 223 250 264 271 289 283 270 259 243 224 207 205 208 222 247 227 192 218 199 270 262 245 242 237
Height
1532 1533 1533 1533 1533 1534 1534 1534 1535 1535 1536 1536 1537 1537 1537 1537 1537 1537 1538 1538 1539 1539 1539 1540 1541 1541 1542 1543 1543 1544 1545 1546 1547 1549 1550 1551 1552 1553 1555 1556 1557 1558 1559
1533 1533 1533 1534 1534 1534 1534 1535 1535 1535 1535 1536 1536 1536 1536 1536 1537 1537 1537 1537 1538 1538 1539 1539 1540 1540 1541 1541 1542 1543 1544 1545 1546 1547 1548 1550 1551 1552 1553 1554 1555 1556 1557
1533 1534 1534 1534 1534 1534 1534 1534 1535 1535 1535 1535 1535 1535 1535 1535 1536 1536 1536 1537 1537 1538 1538 1538 1539 1539 1540 1540 1541 1542 1543 1544 1545 1546 1547 1548 1549 1550 1551 1552 1553 1554 1555
1533 1534 1534 1534 1534 1534 1534 1534 1534 1534 1534 1534 1534 1535 1535 1535 1535 1535 1536 1536 1537 1537 1538 1538 1538 1538 1539 1539 1540 1541 1542 1542 1543 1544 1545 1546 1547 1548 1549 1550 1551 1552 1553
1533 1533 1534 1534 1534 1534 1534 1534 1534 1534 1533 1533 1534 1534 1534 1534 1534 1535 1535 1536 1536 1537 1537 1537 1538 1538 1538 1539 1539 1540 1540 1541 1542 1543 1544 1545 1545 1546 1547 1548 1549 1550 1551
1533 1533 1533 1533 1533 1533 1533 1534 1533 1533 1533 1533 1533 1534 1534 1534 1534 1535 1535 1535 1536 1536 1536 1537 1537 1537 1537 1538 1538 1538 1539 1539 1540 1541 1542 1543 1543 1544 1545 1546 1547 1548 1549
1532 1532 1532 1533 1533 1533 1533 1533 1533 1533 1533 1533 1533 1533 1534 1534 1534 1534 1535 1535 1535 1535 1535 1536 1536 1536 1536 1536 1537 1537 1537 1538 1538 1539 1540 1541 1541 1542 1543 1544 1545 1546 1547
1531 1532 1532 1532 1532 1532 1532 1533 1533 1533 1533 1533 1533 1533 1533 1534 1534 1534 1534 1534 1534 1534 1534 1535 1535 1535 1535 1535 1535 1535 1535 1536 1536 1537 1538 1538 1539 1540 1541 1542 1543 1543 1545
1531 1531 1531 1531 1531 1531 1532 1532 1532 1533 1532 1533 1533 1533 1533 1533 1533 1534 1533 1533 1533 1533 1533 1533 1533 1533 1533 1533 1533 1533 1533 1534 1534 1535 1535 1536 1537 1538 1538 1539 1540 1541 1542
1530 1530 1530 1530 1530 1530 1531 1531 1532 1532 1532 1532 1532 1532 1533 1532 1532 1532 1532 1532 1532 1532 1532 1532 1532 1532 1532 1531 1531 1531 1532 1532 1532 1533 1533 1534 1535 1535 1536 1537 1538 1539 1540
1529 1529 1529 1529 1529 1529 1530 1530 1530 1531 1531 1531 1531 1531 1531 1531 1531 1531 1530 1531 1531 1531 1531 1531 1530 1530 1530 1529 1529 1529 1529 1529 1530 1531 1531 1532 1532 1533 1534 1534 1535 1536 1537
1527 1528 1528 1528 1528 1528 1528 1529 1529 1529 1529 1529 1529 1529 1529 1529 1529 1529 1529 1529 1529 1529 1529 1529 1529 1528 1528 1528 1527 1527 1527 1527 1528 1528 1529 1530 1530 1531 1532 1533 1533 1534 1535
1525 1526 1526 1526 1526 1527 1527 1527 1527 1527 1527 1527 1527 1527 1527 1527 1527 1527 1527 1527 1527 1527 1527 1527 1527 1526 1526 1525 1525 1525 1525 1525 1526 1526 1527 1527 1528 1529 1530 1531 1531 1532 1533
1524 1524 1525 1525 1525 1525 1525 1525 1525 1525 1525 1525 1525 1525 1525 1525 1525 1525 1525 1525 1524 1525 1524 1525 1525 1524 1524 1523 1523 1523 1523 1523 1524 1524 1525 1526 1526 1527 1528 1529 1529 1530 1531
1522 1522 1522 1522 1522 1522 1522 1522 1522 1522 1522 1523 1523 1522 1522 1522 1523 1523 1523 1523 1523 1521 1521 1521 1522 1522 1522 1521 1521 1520 1520 1521 1522 1522 1523 1523 1524 1525 1525 1526 1527 1527 1528
1520 1520 1520 1520 1520 1520 1520 1520 1520 1520 1520 1520 1520 1520 1520 1520 1519 1520 1520 1520 1520 1519 1518 1518 1519 1519 1519 1519 1518 1518 1518 1519 1520 1520 1521 1521 1522 1522 1523 1523 1524 1525 1526
1517 1517 1517 1517 1517 1517 1517 1517 1517 1517 1517 1517 1517 1517 1517 1517 1517 1517 1517 1517 1517 1516 1515 1515 1516 1516 1516 1516 1516 1516 1516 1516 1517 1518 1519 1519 1519 1520 1520 1521 1521 1522 1523
1515 1515 1515 1514 1514 1514 1514 1514 1514 1515 1515 1514 1514 1514 1514 1514 1514 1514 1514 1513 1513 1513 1512 1511 1512 1513 1513 1513 1513 1513 1513 1513 1514 1515 1516 1516 1517 1517 1517 1518 1518 1519 1520
1511 1511 1511 1511 1511 1511 1511 1511 1511 1511 1511 1511 1511 1511 1511 1511 1511 1511 1510 1510 1509 1509 1509 1508 1508 1509 1509 1510 1510 1510 1511 1511 1512 1512 1512 1513 1514 1514 1514 1515 1515 1516 1516
1508 1508 1508 1508 1508 1508 1508 1508 1508 1508 1508 1508 1508 1508 1508 1508 1507 1507 1507 1506 1506 1506 1505 1505 1504 1505 1506 1507 1507 1507 1508 1508 1509 1509 1509 1510 1510 1510 1511 1511 1512 1512 1513
1505 1505 1505 1505 1505 1505 1505 1506 1506 1505 1505 1505 1505 1504 1504 1504 1504 1504 1504 1503 1503 1502 1502 1502 1501 1502 1502 1503 1503 1504 1504 1505 1505 1506 1506 1506 1506 1507 1507 1508 1508 1508 1509
1502 1502 1502 1502 1502 1502 1502 1502 1502 1502 1502 1501 1501 1501 1501 1501 1501 1501 1501 1500 1500 1499 1499 1499 1498 1498 1498 1499 1500 1501 1501 1501 1502 1503 1503 1503 1503 1503 1503 1504 1504 1505 1505
1499 1499 1499 1499 1499 1499 1499 1499 1499 1499 1498 1498 1498 1498 1498 1498 1498 1497 1497 1497 1497 1496 1496 1496 1495 1495 1495 1496 1497 1497 1498 1498 1498 1499 1500 1498 1499 1499 1500 1500 1501 1501 1502
1496 1496 1496 1496 1496 1496 1496 1496 1495 1495 1495 1495 1495 1495 1494 1494 1494 1494 1494 1493 1493 1493 1493 1492 1492 1491 1492 1493 1493 1494 1494 1494 1495 1496 1496 1495 1495 1495 1495 1496 1497 1497 1498
1493 1493 1493 1493 1493 1492 1492 1492 1492 1492 1491 1491 1491 1491 1492 1492 1492 1491 1491 1490 1490 1489 1489 1488 1488 1488 1488 1489 1490 1490 1490 1491 1490 1491 1492 1492 1491 1492 1492 1492 1493 1493 1494
1490 1490 1490 1490 1489 1489 1489 1489 1489 1488 1487 1487 1487 1488 1488 1489 1489 1488 1488 1487 1486 1486 1486 1485 1485 1485 1485 1485 1486 1486 1486 1487 1487 1487 1488 1488 1488 1488 1488 1488 1489 1490 1491